Location: Foligno
(42.9600°N, 12.7050°E)
Time: 11:17:10
(UTC+02:00)

ISS - Pass Details

Date: 06 May 2021
Orbit: 417 x 422 km, 51.6° (Epoch: 15 May)

Event Time Altitude Azimuth Distance (km) Brightness Sun altitude
Exits shadow 02:48:18 28° 28° (NNE) 815 -1.7 -26.0°
Drops below altitude 10° 02:50:14 10° 48° (NE) 1,505 -0.1 -25.8°
Sets 02:52:24 0° 55° (NE) 2,373 1.1 -25.7°
